Time,TemperatureF,DewpointF,PressureIn,WindDirection,WindDirectionDegrees,WindSpeedMPH,WindSpeedGustMPH,Humidity,HourlyPrecipIn,Conditions,Clouds,dailyrainin,SoftwareType,DateUTC
2013-05-02 00:03:00,58.1,54.0,30.34,North,360,0.0,2.0,86,0.00,,,0.00,weatherlink.com 1.10,2013-05-02 04:03:00,
2013-05-02 00:18:00,58.1,54.0,30.34,WNW,290,0.0,0.0,87,0.00,,,0.00,weatherlink.com 1.10,2013-05-02 04:18:00,
2013-05-02 00:33:00,58.0,54.0,30.34,WNW,290,0.0,1.0,87,0.00,,,0.00,weatherlink.com 1.10,2013-05-02 04:33:00,
2013-05-02 00:48:00,57.8,54.0,30.34,NNW,343,0.0,3.0,86,0.00,,,0.00,weatherlink.com 1.10,2013-05-02 04:48:00,
2013-05-02 01:03:00,57.7,54.0,30.34,NNW,343,0.0,1.0,86,0.00,,,0.00,weatherlink.com 1.10,2013-05-02 05:03:00,
2013-05-02 01:18:00,57.7,54.0,30.34,North,360,0.0,2.0,86,0.00,,,0.00,weatherlink.com 1.10,2013-05-02 05:18:00,
2013-05-02 01:33:00,57.6,53.0,30.34,South,186,0.0,2.0,85,0.00,,,0.00,weatherlink.com 1.10,2013-05-02 05:33:00,
2013-05-02 01:48:00,57.6,54.0,30.33,South,186,0.0,0.0,86,0.00,,,0.00,weatherlink.com 1.10,2013-05-02 05:48:00,
2013-05-02 02:03:00,57.6,54.0,30.32,South,188,0.0,1.0,88,0.00,,,0.00,weatherlink.com 1.10,2013-05-02 06:03:00,
2013-05-02 02:18:00,57.4,53.0,30.32,WSW,252,0.0,2.0,85,0.00,,,0.00,weatherlink.com 1.10,2013-05-02 06:18:00,
2013-05-02 02:33:00,57.4,53.0,30.32,WSW,257,0.0,3.0,86,0.00,,,0.00,weatherlink.com 1.10,2013-05-02 06:33:00,
2013-05-02 02:48:00,57.3,53.0,30.32,WSW,257,0.0,1.0,86,0.00,,,0.00,weatherlink.com 1.10,2013-05-02 06:48:00,
2013-05-02 03:03:00,57.3,54.0,30.32,WSW,256,0.0,1.0,87,0.00,,,0.00,weatherlink.com 1.10,2013-05-02 07:03:00,
2013-05-02 03:18:00,57.1,53.0,30.32,WSW,257,0.0,1.0,87,0.00,,,0.00,weatherlink.com 1.10,2013-05-02 07:18:00,
2013-05-02 03:33:00,57.0,53.0,30.32,WSW,257,0.0,0.0,87,0.00,,,0.00,weatherlink.com 1.10,2013-05-02 07:33:00,
2013-05-02 03:49:00,57.0,53.0,30.32,WSW,242,0.0,1.0,87,0.00,,,0.00,weatherlink.com 1.10,2013-05-02 07:49:00,
2013-05-02 04:04:00,57.0,53.0,30.32,WSW,242,0.0,1.0,87,0.00,,,0.00,weatherlink.com 1.10,2013-05-02 08:04:00,
2013-05-02 04:19:00,56.9,53.0,30.32,WSW,242,0.0,0.0,87,0.00,,,0.00,weatherlink.com 1.10,2013-05-02 08:19:00,
2013-05-02 04:34:00,56.9,53.0,30.32,WSW,243,0.0,1.0,87,0.00,,,0.00,weatherlink.com 1.10,2013-05-02 08:34:00,
2013-05-02 04:49:00,57.0,54.0,30.32,WSW,243,0.0,1.0,88,0.00,,,0.00,weatherlink.com 1.10,2013-05-02 08:49:00,
2013-05-02 05:04:00,57.0,53.0,30.32,WSW,242,0.0,1.0,87,0.00,,,0.00,weatherlink.com 1.10,2013-05-02 09:04:00,
2013-05-02 05:19:00,57.0,53.0,30.32,WSW,242,0.0,1.0,87,0.00,,,0.00,weatherlink.com 1.10,2013-05-02 09:19:00,
2013-05-02 05:34:00,57.0,53.0,30.32,WSW,242,0.0,1.0,87,0.00,,,0.00,weatherlink.com 1.10,2013-05-02 09:34:00,
2013-05-02 05:49:00,56.9,53.0,30.32,West,264,0.0,1.0,87,0.00,,,0.00,weatherlink.com 1.10,2013-05-02 09:49:00,
2013-05-02 06:04:00,56.9,53.0,30.32,North,360,0.0,1.0,87,0.00,,,0.00,weatherlink.com 1.10,2013-05-02 10:04:00,
2013-05-02 06:19:00,56.8,53.0,30.32,West,264,0.0,2.0,87,0.00,,,0.00,weatherlink.com 1.10,2013-05-02 10:19:00,
2013-05-02 06:34:00,56.9,53.0,30.33,North,360,0.0,1.0,88,0.00,,,0.00,weatherlink.com 1.10,2013-05-02 10:34:00,
2013-05-02 06:49:00,56.9,53.0,30.33,West,264,0.0,0.0,88,0.00,,,0.00,weatherlink.com 1.10,2013-05-02 10:49:00,
2013-05-02 07:04:00,56.9,53.0,30.33,North,360,0.0,0.0,87,0.00,,,0.00,weatherlink.com 1.10,2013-05-02 11:04:00,
2013-05-02 07:19:00,56.9,53.0,30.33,West,269,0.0,0.0,87,0.00,,,0.00,weatherlink.com 1.10,2013-05-02 11:19:00,
2013-05-02 07:34:00,57.0,53.0,30.33,West,269,0.0,1.0,87,0.00,,,0.00,weatherlink.com 1.10,2013-05-02 11:34:00,
2013-05-02 07:49:00,57.0,53.0,30.33,North,360,0.0,1.0,87,0.00,,,0.00,weatherlink.com 1.10,2013-05-02 11:49:00,
2013-05-02 08:04:00,57.1,53.0,30.34,WSW,238,0.0,3.0,87,0.00,,,0.00,weatherlink.com 1.10,2013-05-02 12:04:00,
2013-05-02 08:19:00,57.3,54.0,30.34,WSW,238,0.0,0.0,87,0.00,,,0.00,weatherlink.com 1.10,2013-05-02 12:19:00,
2013-05-02 08:34:00,57.4,54.0,30.35,North,360,0.0,0.0,87,0.00,,,0.00,weatherlink.com 1.10,2013-05-02 12:34:00,
2013-05-02 08:49:00,57.4,54.0,30.35,WSW,239,0.0,1.0,88,0.00,,,0.00,weatherlink.com 1.10,2013-05-02 12:49:00,
2013-05-02 09:04:00,57.5,54.0,30.35,WSW,238,0.0,1.0,88,0.00,,,0.00,weatherlink.com 1.10,2013-05-02 13:04:00,
2013-05-02 09:19:00,57.5,54.0,30.35,WSW,253,0.0,1.0,87,0.00,,,0.00,weatherlink.com 1.10,2013-05-02 13:19:00,
2013-05-02 09:34:00,57.6,54.0,30.35,WSW,253,0.0,1.0,88,0.00,,,0.00,weatherlink.com 1.10,2013-05-02 13:34:00,
2013-05-02 09:49:00,57.6,54.0,30.36,North,351,0.0,2.0,87,0.00,,,0.00,weatherlink.com 1.10,2013-05-02 13:49:00,
2013-05-02 10:04:00,57.5,54.0,30.36,NNE,26,0.0,2.0,87,0.00,,,0.00,weatherlink.com 1.10,2013-05-02 14:04:00,
2013-05-02 10:19:00,57.7,54.0,30.36,NW,321,0.0,2.0,88,0.00,,,0.00,weatherlink.com 1.10,2013-05-02 14:19:00,
2013-05-02 10:34:00,57.8,54.0,30.36,NW,322,0.0,1.0,88,0.00,,,0.00,weatherlink.com 1.10,2013-05-02 14:34:00,
2013-05-02 10:49:00,57.8,54.0,30.36,West,273,0.0,1.0,88,0.00,,,0.00,weatherlink.com 1.10,2013-05-02 14:49:00,
2013-05-02 11:04:00,58.0,55.0,30.36,SSW,209,0.0,2.0,88,0.00,,,0.00,weatherlink.com 1.10,2013-05-02 15:04:00,
2013-05-02 11:19:00,58.4,55.0,30.36,West,278,0.0,2.0,88,0.00,,,0.00,weatherlink.com 1.10,2013-05-02 15:19:00,
2013-05-02 11:34:00,58.5,55.0,30.36,NW,304,0.0,1.0,87,0.00,,,0.00,weatherlink.com 1.10,2013-05-02 15:34:00,
2013-05-02 11:49:00,58.7,55.0,30.36,North,360,0.0,2.0,86,0.00,,,0.00,weatherlink.com 1.10,2013-05-02 15:49:00,
2013-05-02 12:04:00,59.1,55.0,30.36,WNW,301,0.0,1.0,86,0.00,,,0.00,weatherlink.com 1.10,2013-05-02 16:04:00,
2013-05-02 12:19:00,59.2,55.0,30.36,West,269,0.0,1.0,86,0.00,,,0.00,weatherlink.com 1.10,2013-05-02 16:19:00,
2013-05-02 12:34:00,59.5,55.0,30.35,North,360,0.0,4.0,86,0.00,,,0.00,weatherlink.com 1.10,2013-05-02 16:34:00,
2013-05-02 12:49:00,60.3,56.0,30.35,NW,326,1.0,2.0,85,0.00,,,0.00,weatherlink.com 1.10,2013-05-02 16:49:00,
2013-05-02 13:04:00,60.5,55.0,30.35,South,169,0.0,4.0,82,0.00,,,0.00,weatherlink.com 1.10,2013-05-02 17:04:00,
2013-05-02 13:19:00,60.5,55.0,30.35,SW,233,0.0,2.0,82,0.00,,,0.00,weatherlink.com 1.10,2013-05-02 17:19:00,
2013-05-02 13:34:00,60.9,55.0,30.35,South,174,0.0,1.0,82,0.00,,,0.00,weatherlink.com 1.10,2013-05-02 17:34:00,
2013-05-02 13:49:00,61.3,55.0,30.35,WSW,254,0.0,2.0,81,0.00,,,0.00,weatherlink.com 1.10,2013-05-02 17:49:00,
2013-05-02 14:04:00,61.7,56.0,30.35,WSW,251,0.0,2.0,80,0.00,,,0.00,weatherlink.com 1.10,2013-05-02 18:04:00,
2013-05-02 14:19:00,61.6,55.0,30.35,WNW,289,0.0,1.0,80,0.00,,,0.00,weatherlink.com 1.10,2013-05-02 18:19:00,
2013-05-02 14:34:00,61.5,55.0,30.35,North,360,1.0,1.0,80,0.00,,,0.00,weatherlink.com 1.10,2013-05-02 18:34:00,
2013-05-02 14:49:00,61.4,55.0,30.35,West,273,0.0,0.0,80,0.00,,,0.00,weatherlink.com 1.10,2013-05-02 18:49:00,
2013-05-02 15:04:00,61.4,55.0,30.34,WSW,249,0.0,2.0,80,0.00,,,0.00,weatherlink.com 1.10,2013-05-02 19:04:00,
2013-05-02 15:19:00,61.4,56.0,30.34,WNW,300,0.0,2.0,81,0.00,,,0.00,weatherlink.com 1.10,2013-05-02 19:19:00,
2013-05-02 15:34:00,61.3,55.0,30.33,WNW,290,0.0,2.0,81,0.00,,,0.00,weatherlink.com 1.10,2013-05-02 19:34:00,
2013-05-02 15:49:00,61.2,55.0,30.32,WNW,288,0.0,1.0,81,0.00,,,0.00,weatherlink.com 1.10,2013-05-02 19:49:00,
2013-05-02 16:04:00,61.2,55.0,30.32,NE,36,0.0,2.0,81,0.00,,,0.00,weatherlink.com 1.10,2013-05-02 20:04:00,
2013-05-02 16:19:00,61.2,55.0,30.32,NE,36,0.0,1.0,81,0.00,,,0.00,weatherlink.com 1.10,2013-05-02 20:19:00,
2013-05-02 16:34:00,61.4,55.0,30.31,NE,38,0.0,1.0,80,0.00,,,0.00,weatherlink.com 1.10,2013-05-02 20:34:00,
2013-05-02 16:49:00,61.5,55.0,30.31,NE,49,0.0,1.0,80,0.00,,,0.00,weatherlink.com 1.10,2013-05-02 20:49:00,
2013-05-02 17:04:00,61.6,56.0,30.31,NE,49,0.0,0.0,81,0.00,,,0.00,weatherlink.com 1.10,2013-05-02 21:04:00,
2013-05-02 17:19:00,61.7,56.0,30.30,NE,50,0.0,1.0,80,0.00,,,0.00,weatherlink.com 1.10,2013-05-02 21:19:00,
2013-05-02 17:34:00,61.4,56.0,30.30,NE,49,0.0,0.0,81,0.00,,,0.00,weatherlink.com 1.10,2013-05-02 21:34:00,
2013-05-02 17:49:00,61.2,55.0,30.30,NE,49,0.0,1.0,80,0.00,,,0.00,weatherlink.com 1.10,2013-05-02 21:49:00,
2013-05-02 18:04:00,60.9,55.0,30.30,NE,49,0.0,0.0,81,0.00,,,0.00,weatherlink.com 1.10,2013-05-02 22:04:00,
2013-05-02 18:19:00,60.9,55.0,30.30,ESE,117,0.0,1.0,81,0.00,,,0.00,weatherlink.com 1.10,2013-05-02 22:19:00,
2013-05-02 18:34:00,60.9,55.0,30.29,SE,128,0.0,0.0,81,0.00,,,0.00,weatherlink.com 1.10,2013-05-02 22:34:00,
2013-05-02 18:49:00,60.9,55.0,30.29,SE,128,0.0,1.0,81,0.00,,,0.00,weatherlink.com 1.10,2013-05-02 22:49:00,
2013-05-02 19:04:00,60.9,55.0,30.29,SE,128,0.0,0.0,82,0.00,,,0.00,weatherlink.com 1.10,2013-05-02 23:04:00,
2013-05-02 19:19:00,60.7,55.0,30.29,SE,128,0.0,0.0,82,0.00,,,0.00,weatherlink.com 1.10,2013-05-02 23:19:00,
2013-05-02 19:34:00,60.4,55.0,30.28,SE,128,0.0,0.0,82,0.01,,,0.01,weatherlink.com 1.10,2013-05-02 23:34:00,
2013-05-02 19:49:00,59.9,54.0,30.28,WSW,244,0.0,1.0,82,0.01,,,0.01,weatherlink.com 1.10,2013-05-02 23:49:00,
2013-05-02 20:04:00,59.3,54.0,30.28,WSW,244,0.0,0.0,83,0.01,,,0.01,weatherlink.com 1.10,2013-05-03 00:04:00,
2013-05-02 20:19:00,58.7,54.0,30.28,WSW,244,0.0,0.0,84,0.01,,,0.01,weatherlink.com 1.10,2013-05-03 00:19:00,
2013-05-02 20:34:00,58.1,54.0,30.29,WSW,245,0.0,0.0,85,0.00,,,0.01,weatherlink.com 1.10,2013-05-03 00:34:00,
2013-05-02 21:04:00,57.1,53.0,30.29,WSW,244,0.0,0.0,86,0.00,,,0.01,weatherlink.com 1.10,2013-05-03 01:04:00,
2013-05-02 21:19:00,56.8,53.0,30.30,WSW,244,0.0,0.0,86,0.00,,,0.01,weatherlink.com 1.10,2013-05-03 01:19:00,
2013-05-02 21:34:00,56.6,53.0,30.30,WSW,244,0.0,0.0,86,0.00,,,0.01,weatherlink.com 1.10,2013-05-03 01:34:00,
2013-05-02 21:49:00,56.1,52.0,30.30,WSW,244,0.0,0.0,86,0.00,,,0.01,weatherlink.com 1.10,2013-05-03 01:49:00,
2013-05-02 22:05:00,55.8,52.0,30.31,WSW,244,0.0,0.0,87,0.00,,,0.01,weatherlink.com 1.10,2013-05-03 02:05:00,
2013-05-02 22:20:00,55.4,52.0,30.30,WSW,244,0.0,0.0,87,0.00,,,0.01,weatherlink.com 1.10,2013-05-03 02:20:00,
2013-05-02 22:35:00,55.1,51.0,30.30,WSW,244,0.0,0.0,87,0.00,,,0.01,weatherlink.com 1.10,2013-05-03 02:35:00,
2013-05-02 22:50:00,54.8,51.0,30.30,WSW,244,0.0,0.0,87,0.00,,,0.01,weatherlink.com 1.10,2013-05-03 02:50:00,
2013-05-02 23:05:00,54.5,51.0,30.30,North,360,0.0,0.0,87,0.00,,,0.01,weatherlink.com 1.10,2013-05-03 03:05:00,
2013-05-02 23:20:00,54.1,50.0,30.29,WSW,244,0.0,1.0,87,0.00,,,0.01,weatherlink.com 1.10,2013-05-03 03:20:00,
2013-05-02 23:35:00,53.8,50.0,30.29,WSW,244,0.0,0.0,87,0.00,,,0.01,weatherlink.com 1.10,2013-05-03 03:35:00,
2013-05-02 23:50:00,53.5,50.0,30.30,WSW,244,0.0,0.0,87,0.00,,,0.01,weatherlink.com 1.10,2013-05-03 03:50:00,